Regional Weather Roundup
Issued by NWS

Home | Current Version | Previous Version | Graphics & Text | Print | Product List | Glossary On
Versions: 1 2 3 4 5 6 7 8 9 10 11 12 13 14 15 16 17 18 19 20 21 22 23 24 25 26 27 28 29 30 31 32 33 34 35 36 37 38 39 40 41 42 43 44 45 46 47 48 49 50
000
ASUS45 KCYS 201510
RWRWY

WYOMING REGIONAL WEATHER ROUNDUP
NATIONAL WEATHER SERVICE CHEYENNE WY
900 AM MDT WED SEP 20 2017

NOTE:  "FAIR" INDICATES FEW OR NO CLOUDS BELOW 12,000 FEET
WITH NO SIGNIFICANT WEATHER AND/OR OBSTRUCTIONS TO VISIBILITY.

WYZ001-201600-
YELLOWSTONE NATIONAL PARK

CITY           SKY/WX    TMP DP  RH WIND       PRES   REMARKS
LK YELLOWSTONE NOT AVBL
W YELLOWSTONE  NOT AVBL

$$
WYZ002>013-054>058-071-098>099-201600-
NORTHERN WYOMING

CITY           SKY/WX    TMP DP  RH WIND       PRES   REMARKS
JACKSON        CLOUDY    41  28  60 SW14      29.90F
CODY           FAIR      48  24  39 W12G20    29.79F
GREYBULL       FAIR      44  38  79 SE6       29.82F
WORLAND        FAIR      48  35  60 S14       29.82S
SHERIDAN       LGT RAIN  57  19  22 W23G31    29.74F
BUFFALO        FAIR      50  26  39 S15       29.80F
GILLETTE       FAIR      49  29  46 SW26G32   29.79F
HULETT         FAIR      46  32  57 SW12G20   29.83S
NEWCASTLE      FAIR      46  28  49 CALM      29.88F

$$
WYZ014>020-022>026-101>103-201600-
CENTRAL WYOMING

CITY           SKY/WX    TMP DP  RH WIND       PRES   REMARKS
BIG PINEY      PTSUNNY   37  30  75 S6        29.98S WCI  32
PINEDALE       CLOUDY    32  32 100 SE7       30.00S WCI  26
DUBOIS         CLOUDY    34  27  75 W7        29.89S WCI  28
LANDER           N/A    N/A N/A N/A MISG      29.89F
RIVERTON       FAIR      47  25  42 S13       29.90S
CASPER         FAIR      48  28  46 SW21G31   29.92S
DOUGLAS        FAIR      53  24  32 NW15G25   29.91S

$$
WYZ021-027>030-104>119-201600-
SOUTHERN WYOMING

CITY           SKY/WX    TMP DP  RH WIND       PRES   REMARKS
EVANSTON       FAIR      38  30  73 SW8       30.00S WCI  32
KEMMERER         N/A     36  30  80 SE3       30.00S
FORT BRIDGER   FAIR      45  29  54 S6        30.02F
ROCK SPRINGS   FAIR      41  29  62 S7        30.01F
DIXON          CLOUDY    42  34  73 CALM      30.07R
RAWLINS        FAIR      43  30  60 SW5       30.01S
SARATOGA       FAIR      43  32  65 S7        30.04R
LARAMIE        FAIR      46  27  47 SW12      30.00S
CHEYENNE       FAIR      50  31  48 SW13      30.00S
TORRINGTON     FAIR      56  28  34 W9        29.93S
PINE BLUFFS    FAIR      50  32  50 SW15      30.00R

$$



USA.gov is the U.S. government's official web portal to all federal, state and local government web resources and services.